Tracking 30995 objects as of 5-Jul-2025
HD Live streaming from Space Station
objects crossing your sky now

DELTA 1 DEB

Track DELTA 1 DEB now!
10-day predictions


NORAD ID: 39096
Int'l Code: 1973-086HJ
Perigee: 1,458.9 km
Apogee: 1,585.4 km
Inclination: 101.4 °
Period: 116.3 minutes
Semi major axis: 7893 km
RCS: 0.0093 m2 (small)
Launch date: November 6, 1973
Source: United States (US)
Launch site: AIR FORCE WESTERN TEST RANGE (AFWTR)

Note: This is SATELLITE DEBRIS
Your satellite tracking list
Your tracking list is empty




NASA's NSSDC Master Catalog

Two Line Element Set (TLE):
1 39096U 73086HJ  25184.27151244  .00000246  00000-0  21862-2 0  9990
2 39096 101.3736 114.5918 0080158 307.9466  51.4375 12.38021228514268
Source of the keplerian elements: AFSPC